Regional Weather Roundup
Issued by NWS

Home | Current Version | Previous Version | Graphics & Text | Print | Product List | Glossary On
Versions: 1 2 3 4 5 6 7 8 9 10 11 12 13 14 15 16 17 18 19 20 21 22 23 24 25 26 27 28 29 30 31 32 33 34 35 36 37 38 39 40 41 42 43 44 45 46 47 48 49 50
000
ASUS43 KMKX 281801
RWRWI

WISCONSIN REGIONAL WEATHER ROUNDUP
NATIONAL WEATHER SERVICE MILWAUKEE/SULLIVAN WI
100 PM CDT SUN AUG 28 2016

NOTE: "FAIR" INDICATES FEW OR NO CLOUDS BELOW 12,000 FEET WITH NO
SIGNIFICANT WEATHER AND/OR OBSTRUCTIONS TO VISIBILITY.

WIZ001-002-006>008-014>016-023>028-281900-
NORTHWEST WISCONSIN

CITY           SKY/WX    TMP DP  RH WIND       PRES   REMARKS
SUPERIOR ARPT  CLOUDY    68  63  82 S5        30.17F
ASHLAND        PTSUNNY   72  63  73 S6        30.19F
6HR MIN TEMP:  57; 6HR MAX TEMP:  72;

HAYWARD        PTSUNNY   70  62  76 SE8       30.20S
6HR MIN TEMP:  61; 6HR MAX TEMP:  70;

SIREN          CLOUDY    71  64  80 S5        30.18S
CUMBERLAND       N/A     64  63  94 SE7       30.20S
RICE LAKE      CLOUDY    67  65  92 SE8       30.21S
CHETEK         NOT AVBL
LADYSMITH      PTSUNNY   72  64  75 S5        30.22F
EAU CLAIRE     NOT AVBL
MENOMONIE      CLOUDY    72  68  87 SE10      30.18F
6HR MIN TEMP:  62; 6HR MAX TEMP:  72;

NEW RICHMOND   CLOUDY    70  67  90 CALM      30.18R
OSCEOLA        CLOUDY    71  71 100 SE8       30.20S
$$

WIZ003>005-009-010-017-018-281900-
NORTH CENTRAL WISCONSIN

CITY           SKY/WX    TMP DP  RH WIND       PRES   REMARKS
MANITOWISH WTR NOT AVBL
ARBOR VITAE    MOSUNNY   72  63  72 S5        30.22S
WOODRUFF       MOSUNNY   72  63  72 S5        30.22S
RHINELANDER    SUNNY     76  62  62 SW8       30.23S
6HR MIN TEMP:  59; 6HR MAX TEMP:  76;

EAGLE RIVER    SUNNY     73  56  56 SE5       30.22S
LAND O LAKES   MOSUNNY   73  55  54 W3        30.22F
PHILLIPS       CLOUDY    70  62  75 S6        30.21F
6HR MIN TEMP:  59; 6HR MAX TEMP:  72;

TOMAHAWK       SUNNY     72  61  67 CALM      30.24S
MEDFORD        PTSUNNY   71  65  80 CALM      30.23S
MERRILL        MOSUNNY   75  63  66 CALM      30.23S
6HR MIN TEMP:  62; 6HR MAX TEMP:  75; 6HR PCP:  0.01;

$$

WIZ029-030-035-036-043>047-281900-
CENTRAL WISCONSIN

CITY           SKY/WX    TMP DP  RH WIND       PRES   REMARKS
WAUSAU         CLOUDY    71  61  70 S6        30.23R
6HR MIN TEMP:  61; 6HR MAX TEMP:  73;

MOSINEE        PTSUNNY   70  63  78 SW5       30.25S
MARSHFIELD     CLOUDY    75  62  64 VRB3      30.22F
6HR MIN TEMP:  62; 6HR MAX TEMP:  75;

STEVENS POINT  CLOUDY    71  62  71 NW5       30.23F
WAUPACA        PTSUNNY   78  64  61 CALM      30.23S HX  80
WAUTOMA        CLOUDY    76  65  68 S3        30.23S
6HR MIN TEMP:  65; 6HR MAX TEMP:  77;

WISC RAPIDS    CLOUDY    77  65  66 VRB6      30.23F
6HR MIN TEMP:  63; 6HR MAX TEMP:  77;

CAMP DOUGLAS   NOT AVBL
$$

WIZ011>013-019>022-031-037>040-048>050-281900-
NORTHEAST WISCONSIN

CITY           SKY/WX    TMP DP  RH WIND       PRES   REMARKS
ANTIGO         MOSUNNY   73  61  66 CALM      30.24S
SHAWANO        MOSUNNY   78  64  61 S3        30.22S
OCONTO         NOT AVBL
STURGEON BAY   PTSUNNY   74  61  63 VRB3      30.23R
6HR MIN TEMP:  64; 6HR MAX TEMP:  76; 6HR PCP:  0.01;

GREEN BAY      MOSUNNY   75  66  73 SE5       30.22S
6HR MIN TEMP:  61; 6HR MAX TEMP:  76;

MANITOWOC      NOT AVBL
APPLETON       PTSUNNY   73  61  64 VRB3      30.21F
CLINTONVILLE   SUNNY     75  59  57 SW3       30.22F
OSHKOSH        MOSUNNY   75  63  66 VRB3      30.22S
6HR MIN TEMP:  64; 6HR MAX TEMP:  76;

$$

WIZ032>034-041-042-053>061-281900-
SOUTHWEST WISCONSIN

CITY           SKY/WX    TMP DP  RH WIND       PRES   REMARKS
LA CROSSE      MOSUNNY   76  69  79 SE6       30.19F
6HR MIN TEMP:  67; 6HR MAX TEMP:  76;

SPARTA         MOSUNNY   74  67  76 S7        30.22S
VIROQUA        CLOUDY    74  67  78 CALM      30.23F
6HR MIN TEMP:  60; 6HR MAX TEMP:  75; 6HR PCP:  0.01;

BOSCOBEL       MOSUNNY   81  71  71 VRB6      30.19F HX  85
6HR MIN TEMP:  63; 6HR MAX TEMP:  81;

PRAIRIE DU CHI PTSUNNY   79  67  66 CALM      30.18S HX  81
PLATTEVILLE    MOSUNNY   80  72  78 S6        30.21S HX  83
$$

WIZ056-057-062-063-064-067-068-281900-
SOUTH CENTRAL WISCONSIN

CITY           SKY/WX    TMP DP  RH WIND       PRES   REMARKS
REEDSBURG      NOT AVBL
BARABOO/DELLS  PTSUNNY   71  65  80 E6        30.23F
LONE ROCK      NOT AVBL
MINERAL POINT  PTSUNNY   81  70  69 SE3       30.21S HX  84
MADISON        PTSUNNY   72  66  81 VRB6      30.23S
6HR MIN TEMP:  63; 6HR MAX TEMP:  72;

MIDDLETON      CLOUDY    76  72  87 E6        30.23F
WATERTOWN      MOSUNNY   72  69  90 CALM      30.23S
MONROE         MOSUNNY   79  68  69 E3        30.21F HX  81
JANESVILLE     PTSUNNY   81  68  65 MISG      30.20F HX  83
$$

WIZ051-052-058>065-066-070>072-281900-
SOUTHEAST WISCONSIN

CITY           SKY/WX    TMP DP  RH WIND       PRES   REMARKS
MILWAUKEE      PTSUNNY   72  65  78 E6        30.22F
6HR MIN TEMP:  66; 6HR MAX TEMP:  75;

WAUKESHA       SUNNY     75  66  73 MISG      30.23F
MILWAUKEE/TIMM NOT AVBL
RACINE         CLOUDY    71  65  81 NE6       30.24S
6HR MIN TEMP:  65; 6HR MAX TEMP:  74;

BURLINGTON     MOSUNNY   79  66  64 E5        30.21F HX  81
KENOSHA        MOSUNNY   75  67  76 E9        30.23S
6HR MIN TEMP:  67; 6HR MAX TEMP:  77;

FOND DU LAC    MOSUNNY   76  65  68 CALM      30.22F
6HR MIN TEMP:  64; 6HR MAX TEMP:  77;

SHEBOYGAN      CLOUDY    78  64  61 N3        30.22S HX  80
6HR MIN TEMP:  65; 6HR MAX TEMP:  78;

WEST BEND      MOSUNNY   73  64  73 CALM      30.23S
JUNEAU         PTSUNNY   71  66  84 CALM      30.25S
$$

LSZ147-162-281900-
LAKE SUPERIOR

STATION/POSITION TIME  TEMP    WIND        PRES    WAVE
                       AIR SEA DIR/SP/G            HT/PER
                 (UTC) (F)     (DEG/KT/KT) (MB)    (FT/S)
W MID LAKE BUOY  1650   66 67  220/  8/ 10 1021.9R   1
DEVILS ISLAND    1700   64     200/  3/  4 1022.3S
PORT WING        1740   65     360/  4/  6 1022.4S
SAXON HARBOR     1740   67      10/  3/  4 1022.4R
$$

LMZ867-665-643>646-281900-
LAKE MICHIGAN

STATION/POSITION TIME  TEMP    WIND        PRES    WAVE
                       AIR SEA DIR/SP/G            HT/PER
                 (UTC) (F)     (DEG/KT/KT) (MB)    (FT/S)
CHAMBERS ISLAND  1700   76      10/  3/  5 1022.7S
N MID LAKE BUOY  1650   68 71  250/  8/ 10 1022.3R   1/ 3
NORTHPORT PIER   1700   71     320/  5/  6 1022.7R
SISTER BAY       1707   80        CALM       N/A
KEWAUNEE LAKESHO 1700   64     160/  4/  5 1022.9S
SHEBOYGAN LAKESH 1700   64     170/ 10/ 11 1023.1S
PORT WASHINGTON  1740   70     170/  4/  5 1024.0F
ATWATER BUOY     1700   66     350/  6/  6   N/A
MILWAUKEE LAKESH 1710   66      40/  5/  6   N/A
S MID LAKE BUOY  1650   72 75   50/ 10/ 10 1022.8R   1
KENOSHA   LAKESH 1700   65      30/  9/ 12 1023.4R
$$

TC  - TEMPERATURE IN CELSIUS
VSB - VISIBILITY IN STATUTE MILES
WCI - WIND CHILL INDEX
HX  - HEAT INDEX





USA.gov is the U.S. government's official web portal to all federal, state and local government web resources and services.